This demonstration page uses our WeatherBlox Daily Observations layout. Learn more.

Left ArrowRight Arrow

41.86663, -103.66717

Hourly Observations for January 5, 2017

Temp ( °F °C ) Dew Point ( °F °C ) Humidity (%) Winds ( mph kmh ) Pressure ( in mb ) Visibility ( mi km ) Precip ( " mm )
12:53 am 00:53 Cloudy 5 -15 -1 -18.3 76 76 WNW 12 19 30.22 1023 10 16 0.00 0.00
1:53 am 01:53 Cloudy 5 -15 -2 -18.9 72 72 NW 12 19 30.21 1023 10 16 0.00 0.00
2:53 am 02:53 Cloudy 4 -15.6 -6 -21.1 63 63 NW 9 15 30.24 1024 10 16 0.00 0.00
3:53 am 03:53 Cloudy 4 -15.6 -6 -21.1 63 63 W 9 15 30.25 1025 10 16 0.00 0.00
4:53 am 04:53 Mostly Cloudy 1 -17.2 -7 -21.7 68 68 WNW 8 13 30.27 1025 10 16 0.00 0.00
5:53 am 05:53 Mostly Cloudy -6 -21.1 -12 -24.4 75 75 NW 6 9 30.30 1026 10 16 0.00 0.00
6:53 am 06:53 Mostly Clear -9 -22.8 -15 -26.1 75 75 NW 9 15 30.32 1027 10 16 0.00 0.00
7:53 am 07:53 Sunny -7 -21.7 -13 -25 75 75 NW 6 9 30.34 1027 10 16 0.00 0.00
8:53 am 08:53 Sunny -7 -21.7 -14 -25.6 71 71 NNW 3 6 30.36 1028 10 16 0.00 0.00
9:53 am 09:53 Sunny -1 -18.3 -11 -23.9 62 62 NW 7 11 30.36 1028 10 16 0.00 0.00
10:53 am 10:53 Sunny 3 -16.1 -8 -22.2 60 60 WNW 9 15 30.34 1027 10 16 0.00 0.00
11:53 am 11:53 Sunny 5 -15 -7 -21.7 57 57 WNW 9 15 30.31 1027 10 16 0.00 0.00
12:53 pm 12:53 Sunny 6 -14.4 -6 -21.1 57 57 WNW 13 20 30.28 1025 10 16 0.00 0.00
1:53 pm 13:53 Sunny 6 -14.4 -6 -21.1 57 57 NW 10 17 30.27 1025 10 16 0.00 0.00
2:53 pm 14:53 Sunny 6 -14.4 -5 -20.6 60 60 W 13 20 30.27 1025 10 16 0.00 0.00
3:53 pm 15:53 Sunny 4 -15.6 -6 -21.1 63 63 W 8 13 30.26 1025 10 16 0.00 0.00
4:53 pm 16:53 Clear -1 -18.3 -10 -23.3 65 65 WNW 8 13 30.26 1025 10 16 0.00 0.00
5:53 pm 17:53 Clear -9 -22.8 -15 -26.1 75 75 NNW 7 11 30.35 1028 10 16 0.00 0.00
6:53 pm 18:53 Clear -7 -21.7 -14 -25.6 71 71 NNW 9 15 30.35 1028 10 16 0.00 0.00
7:53 pm 19:53 Clear -6 -21.1 -13 -25 71 71 NW 6 9 30.32 1027 10 16 0.00 0.00
8:53 pm 20:53 Clear -9 -22.8 -15 -26.1 75 75 NW 10 17 30.35 1028 10 16 0.00 0.00
9:53 pm 21:53 Clear -12 -24.4 -18 -27.8 73 73 NW 10 17 30.34 1028 10 16 0.00 0.00
10:53 pm 22:53 Clear -14 -25.6 -20 -28.9 74 74 NNW 8 13 30.32 1027 10 16 0.00 0.00
11:53 pm 23:53 Clear -13 -25 -19 -28.3 74 74 WNW 9 15 30.32 1027 10 16 0.00 0.00

Powered by AerisWeather